Regional Weather Roundup
Issued by NWS

Home | Current Version | Previous Version | Text Only | Print | Product List | Glossary On
Versions: 1 2 3 4 5 6 7 8 9 10 11 12 13 14 15 16 17 18 19 20 21 22 23 24 25 26 27 28 29 30 31 32 33 34 35 36 37 38 39 40 41 42 43 44 45 46 47 48 49 50
000
ASHW40 PHFO 172144
RWRHI

WEATHER ROUNDUP FOR HAWAII
NATIONAL WEATHER SERVICE HONOLULU HI
1100 AM HST TUE JAN 17 2017

THIS IS AN AUTOMATED REPORT THAT HAS NOT BEEN QUALITY CONTROLLED.

NOTE..."FAIR" INDICATES FEW OR NO CLOUDS BELOW 12,000 FEET WITH NO
SIGNIFICANT WEATHER AND/OR OBSTRUCTIONS TO VISIBILITY.

* - THESE SITES REPORT LIMITED FIELDS

HIZ001>004-172200-
KAUAI-NIIHAU-

CITY           SKY/WX    TMP DP  RH WIND       PRES   REMARKS
LIHUE APT      SUNNY     79  64  61 NE7       30.12
PORT ALLEN*      N/A     81 N/A N/A E10         N/A
POIPU*           N/A     81 N/A N/A E5          N/A
PRINCEVILLE*   NOT AVBL
KOKOLE POINT*  NOT AVBL
MOLOAA DAIRY*    N/A     79  64  61 E6G12       N/A
WAIMEA HTS*      N/A     82  63  51 SW8         N/A
PUU OPAE*        N/A     73  64  73 W5G12       N/A
PUU LUA*       NOT AVBL
MAKAHA RIDGE*    N/A     72  61  68 N2          N/A
$$

HIZ005>011-172200-
OAHU-

CITY           SKY/WX    TMP DP  RH WIND       PRES   REMARKS
HONOLULU       MOSUNNY   80  60  50 NE9       30.10F
KALAELOA       MOSUNNY   80  62  54 VRB5      30.11F
KANEOHE MCB    CLOUDY    78  64  61 E9        30.09
WHEELER FIELD  MOSUNNY   75  63  66 E3        30.12F
BELLOWS*         N/A    N/A N/A N/A NE9         N/A
KAHUKU*          N/A    N/A N/A N/A NE7G14      N/A
WHEELER*         N/A    N/A N/A N/A NE3         N/A
WAIANAE HARBOR   N/A    N/A N/A N/A W7          N/A
DILLINGHAM*      N/A     82  61  47 MISG        N/A
KAHUKU TRN*      N/A     70  55  60 W7G14       N/A
KAWAILOA*        N/A    N/A N/A N/A E8G14       N/A
KII*             N/A     77  63  61 E12         N/A
MAKUA RANGE*     N/A     82  66  57 SE6G12      N/A
OAHU FOREST NW   N/A     72  61  68 E9G23       N/A
SCHOFIELD BRK*   N/A    N/A N/A N/A MISG        N/A
SCHOFIELD S*   NOT AVBL
WAIANAE VLY*     N/A     82  61  47 S7          N/A
KUAOKALA*        N/A     73   7   7 N5G14       N/A
HONOULIUULI*   NOT AVBL
MOKUOLOE IS*   NOT AVBL
PALEHUA*         N/A    N/A N/A N/A E5G10       N/A
WAIAWA PHB*    NOT AVBL
$$

HIZ012>013-172200-
MOLOKAI-

CITY           SKY/WX    TMP DP  RH WIND       PRES   REMARKS
MOLOKAI AIRPT  MOSUNNY   82  66  57 NE12G22   30.09F
KALAUPAPA      NOT AVBL
MAKAPULAPAI*     N/A     79  66  65 E17G23      N/A
MOLOKAI 1*     NOT AVBL
PUU ALII*        N/A     65  58  78 N2          N/A
$$

HIZ016-172200-
KAHOOLAWE-

CITY           SKY/WX    TMP DP  RH WIND       PRES   REMARKS
KAHOOLAWE*       N/A     66 N/A N/A E1          N/A
HAKIOAWA*        N/A     76  67  72 MISG      30.51F
HONOKANAIA*      N/A     76  62  61 W3G16     30.05R
KANELOA*         N/A     73  63  68 NW5G14    30.17R
KEALIALALO*    NOT AVBL
LUA MAKIKA*    NOT AVBL
$$

HIZ014>015-172200-
LANAI-

CITY           SKY/WX    TMP DP  RH WIND       PRES   REMARKS
LANAI CITY     FAIR      75  62  64 SE10G16   30.14S
LANAI 1*       NOT AVBL
$$

HIZ017>028-172200-
MAUI-

CITY           SKY/WX    TMP DP  RH WIND       PRES   REMARKS
KAHULUI        MOSUNNY   77  65  66 NW7       30.10S
KAPALUA-W MAUI MOSUNNY   77  64  65 SW9       30.12
HANA AIRPORT   CLOUDY    75  70  83 NE8       30.13F
HANA*            N/A     75 N/A N/A SE3         N/A
HALEAKALA SUMM   N/A     52  -2  11 E29G58      N/A
MAALAEA BAY*     N/A     81 N/A N/A NE8G14      N/A
HALEAKALA*     NOT AVBL
KAUPO GAP*       N/A     82  72  69 SE3G20      N/A
KULA 1*          N/A    N/A N/A N/A W6G12       N/A
$$

HIZ023>026-172200-
BIG ISLAND OF HAWAII COAST AND LOWER SLOPES-

CITY           SKY/WX    TMP DP  RH WIND       PRES   REMARKS
KAILUA KONA    MOSUNNY   80  65  59 SW9       30.07S
HILO           PTSUNNY   79  68  69 SE10      30.09F
HONOKAA*         N/A     72 N/A N/A VRB1        N/A
KAWAIHAE MWT*  NOT AVBL
KAWAIHAE*        N/A     75 N/A N/A W8        30.08F
SOUTH POINT*     N/A     73 N/A N/A N17G24      N/A
UPOLU AIRPORT* NOT AVBL
KAMUELA*       CLOUDY    73  61  64 N6        30.16F
HAKALAU*         N/A     74  12   9 E3G10       N/A
KALOKO-HONOKO*   N/A     82  64  54 SW8       30.06F
PALI 2*          N/A     75  64  69 W15G22      N/A
KEALAKOMO*       N/A     81  70  69 E18G24      N/A
KAUPULEHU*       N/A     75  63  64 N8G16       N/A
KAPAPALA*      NOT AVBL
LOWER KAHUKU*    N/A     70  64  83 SE3G18      N/A
PUHE CS*         N/A     79  64  61 W6G12       N/A
PUHO CS*         N/A     81  62  51 W3          N/A
PTA KEAMUKU*     N/A     66  57  72 CALM        N/A
WAIKOLOA*        N/A     77  63  61 NW6G12      N/A
$$

HIZ027>028-172200-
BIG ISLAND OF HAWAII INTERIOR AND SUMMMITS-

CITY           SKY/WX    TMP DP  RH WIND       PRES   REMARKS
BRADSHAW FIELD SUNNY     73  10   9 S20G28    30.37F
MK VISITOR CEN   N/A     61  -4   7 E12         N/A
MAUNA KEA*       N/A     37  -4  17 NE45        N/A  WCI  23
MAUNA LOA*       N/A     52 -18   5 MISG        N/A
MAUNA LOA 1*   NOT AVBL
PTA KIPUKA*      N/A     82 -27   1 E18G30      N/A
PTA RANGE 17*    N/A     75 -18   2 SE24G35     N/A
PTA WEST*        N/A     48  37  66 N10G17      N/A
NENE CABIN*      N/A     66  39  37 E12G25      N/A
AHUMOA*          N/A    N/A N/A N/A NW7         N/A
PTA PORTABLE*  NOT AVBL
PUU MALI*        N/A     70 N/A N/A E21G36      N/A
$$

HIC003-172200-
NORTHWEST ISLANDS-

CITY           SKY/WX    TMP DP  RH WIND       PRES   REMARKS
MIDWAY ISLAND  CLOUDY    72  64  78 S9        30.03R
MIDWAY NOS*      N/A     72 N/A N/A MISG      30.01R
FRENCH FRIGATE NOT AVBL
$$

PHZ110>124-180-172200-
BUOY REPORTS

STATION/POSITION TIME  TEMP    WIND        PRES    WAVE   SWELL
                       AIR SEA DIR/SP/G            HT/PER HT/DIR
                 (UTC) (F)     (DEG/KT/KT) (MB)    (FT/S) (FT/D)
BUOY 51001       2120   74 76  190/  4/  6 1020.4
BUOY 51101       2050   74 76  160/  4/  6 1021.2R   8/11   8/300
BUOY 51100       NOT AVBL
BUOY 51002       2120   77 78   70/ 19/ 25 1016.6
BUOY 51003       2050   76 78   50/ 10/ 12 1018.4R   6/10   7/300
BUOY 51004       2050   70 77   80/ 17/ 21 1017.4R   9/ 9   7/100
BARBERS PT BUOY  NOT AVBL
WAIMEA BAY BUOY  2102      75                N/A     5/11   3/320
KAILUA BAY BUOY  2104      76                N/A     5/11   2/ 20
LANAI BUOY       2115      78                N/A     2/10   2/260
BARBERS PT 2     2109      77                N/A     4/12   3/290
PAUWELA MAUI     2109      76                N/A     5/11   3/340
HILO             2112      76                N/A     7/ 9   3/ 60
KANEOHE BAY BUOY 2106      75                N/A     4/11   2/350
HANALEI KAUAI    2052      77                N/A     6/11   3/300
KAHULUI HARBOR   2112   74 77  320/  9/ 10 1019.4
HONOLULU HARBOR  2112   77 77  110/  4/  8 1019.9
KILO NALU        NOT AVBL
HILO HARBOR      2112   83 75  120/  5/  9 1018.4
MOKUOLOE         2036   76     100/  4/  6   N/A
NAWILIWILI       2112   76 78   30/  4/  7 1019.7
WHOTS BUOY       NOT AVBL
BUOY 51028       NOT AVBL
$$

......................KEY........................................
  SKY/WX - SKY CONDITIONS/PRESENT WEATHER
  TMP    - TEMPERATURE IN FAHRENHEIT
  DWPT   - DEWPOINT IN FAHRENHEIT
  RH     - RELATIVE HUMIDITY IN PERCENT
  WIND   - DIRECTION AND SPEED /MPH FOR ISLANDS...KTS FOR BUOYS/
  PRES   - MEAN SEA LEVEL PRESSURE IN INCHES OF HG
  VSB    - VISIBILITY IN MILES
  HX     - HEAT INDEX
  WCI    - WIND CHILL INDEX
  VRB    - VARIABLE WIND DIRECTION
  N/A    - NOT AVAILABLE



USA.gov is the U.S. government's official web portal to all federal, state and local government web resources and services.